sat.trackr.live / text

‹ back to catalog

STARLINK-32121

NORAD 60264 · 2024-131K

PAYLOAD ACTIVE UNKNOWN

§ Identity

Operator
Country
US
Launch date
2024-07-27
Launch site
AFETR
Launch vehicle
Mass (kg)
RCS (m²)

Purposes: comms

External: N2YO · Heavens-Above · Gunter

§ Orbital elements

Epoch: 2026-05-25T01:56:44.890368Z

Period
94.11 min
Inclination
53.1607°
Eccentricity
0.0001047
Mean motion
15.30204743 rev/d
Perigee alt
474.5 km
Apogee alt
475.9 km
Semi-major
6,853.3 km
B*
-4.5961e-5
RAAN
57.6611°
Arg perigee
87.5146°
Mean anomaly
272.5974°
Rev number
10,346

§ Raw data

STARLINK-321211 60264U 24131K   26145.08107512 -.00001720  00000+0 -45961-4 0  99912 60264  53.1607  57.6611 0001047  87.5146 272.5974 15.30204743103460

JSON: /api/v1/satellites/60264 · /tle

For live sub-satellite position, see the globe view (requires WebGL).

§ Visibility from observer

Set your observer location to see the next 7 days of passes ≥ 10°. The values pass through the URL so the page stays shareable.

No JS? Fill the form by hand. The geolocation button needs JavaScript.